Location: Biberach+an+der+Riss
(48.0937°N, 9.7888°E)
Time: 21:53:13
(UTC+02:00)

Tiangong 2 - Visible Passes

Search period start: 15 July 2018 00:00
Search period end: 25 July 2018 00:00
Orbit: 386 x 394 km, 42.8° (Epoch: 15 July)

Date Brightness Start Highest point End Pass type
(mag) Time Alt. Az. Time Alt. Az. Time Alt. Az.
15 Jul 3.3 00:00:11 10° WSW 00:01:04 16° WSW 00:01:04 16° WSW visible
15 Jul 1.9 23:02:36 10° WSW 23:05:28 31° S 23:06:03 28° SSE visible
16 Jul 2.1 22:05:05 10° WSW 22:07:55 30° S 22:10:46 10° ESE visible
16 Jul 2.8 23:41:40 10° WSW 23:43:13 20° SW 23:43:13 20° SW visible
17 Jul 2.1 22:44:00 10° WSW 22:46:50 29° S 22:47:59 22° SSE visible
18 Jul 2.9 23:23:16 10° WSW 23:25:02 19° SW 23:25:02 19° SW visible
19 Jul 2.5 22:25:28 10° WSW 22:28:08 24° SSW 22:29:45 17° SSE visible
20 Jul 3.3 23:05:09 10° WSW 23:06:46 14° SSW 23:06:46 14° SSW visible
21 Jul 2.9 22:07:04 10° WSW 22:09:24 19° SSW 22:11:29 11° SSE visible
23 Jul 3.5 21:48:59 10° SW 21:50:34 13° SSW 21:52:09 10° S visible
